Regional Weather Roundup
Issued by NWS

Home | Current Version | Previous Version | Graphics & Text | Print | Product List | Glossary On
Versions: 1 2 3 4 5 6 7 8 9 10 11 12 13 14 15 16 17 18 19 20 21 22 23 24 25 26 27 28 29 30 31 32 33 34 35 36 37 38 39 40 41 42 43 44 45 46 47 48 49 50
000
ASUS43 KFSD 290302
RWRSD

WEATHER ROUNDUP FOR SOUTH DAKOTA
NATIONAL WEATHER SERVICE SIOUX FALLS SD
1000 PM CDT THU MAY 28 2015

NOTE: "FAIR" INDICATES FEW OR NO CLOUDS BELOW 12,000 FEET WITH NO
SIGNIFICANT WEATHER AND/OR OBSTRUCTIONS TO VISIBILITY.


SDZ001>005-009-010-012>017-290400-
NORTHWEST AND NORTH CENTRAL SOUTH DAKOTA

CITY           SKY/WX    TMP DP  RH WIND       PRES   REMARKS
BUFFALO          N/A     57  54  89 CALM      29.91S
FAITH            N/A     59  53  80 NW8       29.90F
MOBRIDGE       CLOUDY    64  62  93 NW10      29.82F
$$

SDZ012>016-024>037-041>051-057-063-072>074-290400-
SOUTHWEST AND SOUTH CENTRAL SOUTH DAKOTA

CITY           SKY/WX    TMP DP  RH WIND       PRES   REMARKS
RAPID CTY ARPT CLOUDY    56  52  86 W9        29.96R
PIERRE         CLOUDY    61  58  90 S6        29.86R
CUSTER         MOCLDY    51  42  71 N7        30.05R
PHILIP         LGT RAIN  59  57  93 W6        29.91F
PINE RIDGE     CLOUDY    56  52  86 CALM      29.98S
WINNER         CLOUDY    65  57  75 SW9       29.88R
$$

SDZ004>011-016>023-039-040-290400-
NORTHEAST SOUTH DAKOTA

CITY           SKY/WX    TMP DP  RH WIND       PRES   REMARKS
ABERDEEN       CLOUDY    64  59  83 NE12      29.87R
WATERTOWN      MOCLDY    70  57  63 S12       29.86R
BROOKINGS      CLOUDY    68  55  64 S13       29.88F
SISSETON         N/A     64  63  96 NE17G29   29.84R
$$

SDZ017-020-022-023-036>040-048>070-290400-
SOUTHEAST SOUTH DAKOTA

CITY           SKY/WX    TMP DP  RH WIND       PRES   REMARKS
SIOUX FALLS    CLOUDY    67  59  75 S13       29.89R
HURON            N/A    N/A N/A N/A MISG      29.82R
CHAMBERLAIN    CLOUDY    64  60  89 NW14      29.85R
MITCHELL       CLOUDY    73  63  70 S10       29.83S
YANKTON        CLOUDY    70  61  73 SE7       29.87S
$$

ABBREVIATIONS USED IN REMARKS
   TC - TEMPERATURE IN CELSIUS
  WCI - WIND CHILL INDEX
   HX - HEAT INDEX
  VSB - VISIBILITY




USA.gov is the U.S. government's official web portal to all federal, state and local government web resources and services.